Location: Newark
(43.0000°N, 1.6781°W)
Time: 08:52:29
(UTC+00:00)

AO-7 - Pass Details

Date: 15 December 2022
Orbit: 1440 x 1459 km, 101.9° (Epoch: 28 January)

Event Time Altitude Azimuth Distance (km) Brightness Sun altitude
Rises 06:08:01 0° 13° (NNE) 4,547 ? -14.5°
Reaches altitude 10° 06:10:57 10° 7° (N) 3,568 ? -14.0°
Maximum altitude 06:18:33 42° 301° (WNW) 1,960 ? -12.7°
Drops below altitude 10° 06:26:10 10° 234° (SW) 3,565 ? -11.4°
Sets 06:29:07 0° 227° (SW) 4,542 ? -10.9°
